Tracking 18032 objects as of 24-March-2017
HD Live streaming from Space Station
objects crossing your sky now

ECHOSTAR 1

Track ECHOSTAR 1 now!
ECHOSTAR 1 is classified as:


NORAD ID: 23754
Int'l Code: 1995-073A
Perigee: 35,782.5 km
Apogee: 35,805.5 km
Inclination: 0.6 °
Period: 1,436.1 minutes
Semi major axis: 42165 km
RCS: 30.9641 m2 (large)
Launch date: December 28, 1995
Source: United States (US)
Launch site: Xichang Space Center, China (XSC)

Western United States to Central/Mountain region; 16 Ku-band transponders
Your satellite tracking list
Your tracking list is empty





NASA's NSSDC Master Catalog

Two Line Element Set (TLE):
1 23754U 95073A   17081.44915594 -.00000252 +00000-0 +00000-0 0  9993
2 23754 000.6294 090.6086 0002725 283.2786 250.6785 01.00270765018588
Source of the keplerian elements: AFSPC